Location: Recife
(8.0585°S, 34.8848°W)
Time: 01:59:54
(UTC-03:00)

Courier 1B Rocket - Pass Details

Date: 23 April 2026
Orbit: 920 x 1201 km, 28.2° (Epoch: 14 May)

Event Time Altitude Azimuth Distance (km) Brightness Sun altitude
Exits shadow 04:15:30 15° 216° (SW) 2,283 6.5 -16.9°
Maximum altitude 04:17:27 17° 194° (SSW) 2,173 6.6 -16.4°
Drops below altitude 10° 04:21:26 10° 155° (SSE) 2,668 7.5 -15.4°
Sets 04:25:11 0° 135° (SE) 3,658 8.5 -14.5°
